TimeCDT,TemperatureF,Dew PointF,Humidity,Sea Level PressureIn,VisibilityMPH,Wind Direction,Wind SpeedMPH,Gust SpeedMPH,PrecipitationIn,Events,Conditions,WindDirDegrees,DateUTC
12:53 AM,50.0,44.1,80,29.83,10.0,South,8.1,-,N/A,,Clear,190,2013-04-29 05:53:00
1:53 AM,53.1,48.0,83,29.81,10.0,South,11.5,-,N/A,,Clear,190,2013-04-29 06:53:00
2:53 AM,52.0,48.9,89,29.83,10.0,SSW,8.1,-,N/A,,Clear,210,2013-04-29 07:53:00
3:53 AM,51.1,48.9,92,29.83,9.0,South,8.1,-,N/A,,Clear,190,2013-04-29 08:53:00
4:53 AM,52.0,50.0,93,29.83,9.0,SSW,11.5,-,N/A,,Clear,210,2013-04-29 09:53:00
5:53 AM,50.0,48.0,93,29.84,7.0,Calm,Calm,-,N/A,,Clear,0,2013-04-29 10:53:00
5:58 AM,50.0,48.2,94,29.84,8.0,South,4.6,-,N/A,,Clear,170,2013-04-29 10:58:00
6:27 AM,50.0,48.2,94,29.84,6.0,South,9.2,-,N/A,,Haze,170,2013-04-29 11:27:00
6:53 AM,51.1,50.0,96,29.84,6.0,South,6.9,-,N/A,,Haze,180,2013-04-29 11:53:00
7:53 AM,53.1,51.1,93,29.85,7.0,South,8.1,-,N/A,,Haze,180,2013-04-29 12:53:00
8:53 AM,57.0,52.0,83,29.86,9.0,SSW,9.2,-,N/A,,Haze,210,2013-04-29 13:53:00
9:53 AM,57.0,51.1,81,29.84,10.0,South,9.2,-,N/A,,Haze,180,2013-04-29 14:53:00
10:53 AM,57.9,52.0,81,29.84,9.0,South,4.6,-,N/A,,Mostly Cloudy,170,2013-04-29 15:53:00
11:53 AM,59.0,52.0,78,29.80,10.0,SE,13.8,-,N/A,,Overcast,140,2013-04-29 16:53:00
12:15 PM,62.6,51.8,68,29.83,10.0,Calm,Calm,-,N/A,Thunderstorm,Overcast,0,2013-04-29 17:15:00
12:30 PM,60.8,53.6,77,29.80,7.0,ENE,6.9,-,N/A,,Overcast,70,2013-04-29 17:30:00
12:53 PM,62.1,53.1,72,29.78,8.0,ESE,12.7,-,N/A,,Mostly Cloudy,110,2013-04-29 17:53:00
1:53 PM,66.9,53.1,61,29.75,10.0,SE,13.8,-,N/A,,Scattered Clouds,140,2013-04-29 18:53:00
2:53 PM,71.1,53.1,53,29.70,10.0,SSE,19.6,26.5,N/A,,Clear,160,2013-04-29 19:53:00
3:53 PM,75.0,55.0,50,29.68,10.0,South,18.4,26.5,N/A,,Scattered Clouds,170,2013-04-29 20:53:00
4:53 PM,75.0,57.0,53,29.67,10.0,South,18.4,-,N/A,,Mostly Cloudy,180,2013-04-29 21:53:00
5:53 PM,73.9,57.9,57,29.66,10.0,South,15.0,-,N/A,,Mostly Cloudy,180,2013-04-29 22:53:00
6:53 PM,73.9,59.0,59,29.66,10.0,South,9.2,-,N/A,,Clear,180,2013-04-29 23:53:00
7:53 PM,72.0,57.9,61,29.65,10.0,SSE,10.4,-,N/A,,Scattered Clouds,150,2013-04-30 00:53:00
8:06 PM,71.6,57.2,60,29.65,10.0,SE,10.4,-,N/A,Thunderstorm,Mostly Cloudy,140,2013-04-30 01:06:00
8:53 PM,68.0,60.1,76,29.68,10.0,South,13.8,20.7,0.02,Thunderstorm,Overcast,170,2013-04-30 01:53:00
9:16 PM,66.2,59.0,78,29.69,10.0,SSE,12.7,-,N/A,,Scattered Clouds,160,2013-04-30 02:16:00
9:53 PM,64.9,59.0,81,29.68,10.0,SSE,12.7,-,N/A,,Partly Cloudy,150,2013-04-30 02:53:00
10:53 PM,64.9,59.0,81,29.68,10.0,SSE,18.4,-,N/A,,Scattered Clouds,160,2013-04-30 03:53:00
11:53 PM,63.0,57.9,84,29.67,10.0,South,15.0,23.0,N/A,,Mostly Cloudy,170,2013-04-30 04:53:00